Vorticity
nan nan nan nan nan nan nan nan nan nan nan nan nan nan nan nan nan nan nan nan nan nan nan nan nan nan nan nan nan nan nan nan nan
nan 6 5 6 6 5 4 4 5 5 5 4 2 3 9 16 6 8 7 8 7 4 4 5 5 7 6 4 6 7 6 7 nan
nan 5 5 5 6 5 5 5 5 5 5 4 3 3 8 14 7 8 8 9 5 4 5 6 7 7 5 6 7 4 7 9 nan
nan 6 5 5 4 5 6 7 5 4 4 4 4 5 9 10 7 6 7 8 6 5 5 7 7 6 5 6 6 6 7 4 nan
nan 5 7 6 5 5 6 6 6 5 5 4 3 3 11 9 4 5 11 9 6 5 7 7 5 5 6 5 6 8 6 4 nan
nan 7 8 7 6 5 5 7 5 1 5 6 4 5 10 5 3 8 11 6 5 6 6 5 5 6 5 8 9 6 4 5 nan
nan 8 7 6 4 3 4 7 5 -1 2 5 6 9 9 5 6 10 8 4 4 6 5 5 6 6 6 8 7 5 6 6 nan
nan 6 6 7 3 4 4 5 5 6 5 6 9 9 7 7 9 9 8 9 7 6 5 5 6 6 8 8 5 4 5 6 nan
nan 6 7 7 5 8 5 6 7 8 7 8 7 7 8 8 8 7 13 15 7 5 5 6 6 6 7 4 5 6 6 6 nan
nan 8 7 7 8 7 7 7 9 8 6 7 9 10 3 7 13 10 12 9 6 6 6 7 6 7 6 4 4 5 6 6 nan
nan 7 8 8 8 8 9 8 7 7 8 9 6 6 5 10 11 10 10 8 7 6 7 7 8 7 4 4 5 5 6 5 nan
nan 6 8 8 9 8 8 8 7 7 8 8 8 5 5 7 8 8 8 10 8 8 9 7 8 6 4 5 5 6 6 5 nan
nan 8 8 7 6 9 10 8 7 8 7 8 8 7 7 7 6 6 5 9 8 8 10 9 10 7 4 5 6 6 6 6 nan
nan 8 9 7 4 8 9 9 7 7 7 7 9 8 9 6 7 8 7 6 6 7 7 10 10 7 6 5 5 6 6 5 nan
nan 6 7 5 6 7 8 8 8 7 9 8 7 7 7 8 10 8 8 6 5 9 8 5 9 8 7 7 6 6 6 5 nan
nan 7 8 6 6 8 8 8 8 6 6 4 5 8 10 7 6 10 9 8 9 7 6 7 6 10 10 7 7 7 6 6 nan
nan 7 9 7 8 10 9 7 6 9 6 4 6 6 6 10 9 6 9 8 8 9 7 7 9 9 7 11 10 7 7 6 nan
nan 7 7 8 7 9 10 10 6 7 6 6 6 7 9 9 11 8 8 8 5 9 11 9 8 7 11 9 10 10 9 7 nan
nan 8 7 6 7 9 8 8 7 7 6 6 5 6 13 11 7 12 9 9 9 7 6 12 8 7 11 11 11 8 8 8 nan
nan nan nan nan nan nan nan nan nan nan nan nan nan nan nan nan nan nan nan nan nan nan nan nan nan nan nan nan nan nan nan nan nan
CAPE
911 677 706 723 500 297 46 18 26 1 3 1 0 0 0 42 112 201 311 273 358 297 99 8 4 5 4 15 10 10 13 12 32
628 629 561 560 407 248 21 0 8 0 0 0 0 0 0 36 66 198 236 282 286 147 10 8 3 6 16 9 4 10 10 16 58
488 484 488 434 184 68 15 4 7 0 0 0 0 0 0 41 57 105 192 253 162 52 11 1 3 23 19 7 20 13 41 86 49
394 446 389 333 160 70 56 89 32 0 0 0 0 0 0 36 49 65 149 147 117 27 9 3 23 27 19 24 17 15 61 40 29
336 278 219 224 124 72 75 121 71 30 0 0 0 0 0 25 27 49 65 158 83 19 12 18 18 4 0 16 17 58 32 15 9
10 8 70 121 104 79 70 111 97 43 4 0 0 0 0 1 22 30 97 115 64 30 12 7 4 0 16 32 58 40 28 9 17
5 3 29 54 72 66 68 55 69 7 0 0 0 0 0 0 0 34 69 89 54 22 4 1 3 2 15 57 42 26 18 7 2
19 44 23 28 24 13 13 16 1 4 2 0 0 0 4 4 4 3 28 146 23 33 2 0 1 4 61 62 35 13 10 0 3
4 30 25 22 12 11 10 3 3 5 4 2 1 2 10 15 13 0 7 104 69 36 5 2 2 32 58 47 20 9 1 1 2
3 14 53 15 15 10 5 6 8 3 1 0 0 3 11 32 56 0 25 63 98 45 11 5 7 62 49 14 5 1 0 1 5
12 40 64 45 28 3 0 4 5 4 3 2 7 18 19 62 67 83 45 45 84 81 9 6 36 77 60 25 7 1 0 3 11
15 31 48 17 5 9 0 2 10 11 7 4 10 22 0 67 70 34 3 17 33 76 24 8 70 77 46 19 4 0 1 3 9
30 39 39 1 0 1 4 3 11 20 17 13 13 16 2 27 22 34 1 8 3 29 45 41 70 74 46 11 7 0 0 3 3
5 27 5 4 0 0 0 0 7 27 22 37 24 17 16 20 32 43 37 4 8 25 15 28 60 80 49 7 4 0 2 3 2
0 8 1 2 0 0 3 0 18 35 31 11 27 44 31 35 26 36 56 28 20 20 15 23 36 42 76 22 2 1 3 3 2
0 0 1 2 10 7 5 5 13 33 36 15 25 24 34 23 30 52 73 68 21 21 27 45 53 37 68 67 12 0 1 2 2
0 0 4 3 10 11 1 13 18 34 25 7 10 23 16 20 26 41 47 46 57 24 36 65 52 33 43 27 37 13 0 4 2
0 0 0 2 6 6 0 4 7 18 29 20 1 13 11 5 19 17 13 16 75 57 36 37 57 34 63 23 0 0 8 3 4
0 0 0 1 6 5 0 0 11 10 9 0 0 0 0 2 13 15 17 0 36 42 12 36 40 26 52 43 12 0 14 2 13
0 0 0 0 4 5 0 0 6 10 6 0 0 0 0 0 5 6 6 11 9 38 51 27 17 7 44 20 2 0 4 2 31